Location: Arboucave
(43.6130°N, 0.4343°W)
Time: 11:34:12
(UTC+00:00)

YAOGAN 1 - Pass Details

Date: 17 November 2025
Orbit: 605 x 607 km, 97.8° (Epoch: 11 December)

Event Time Altitude Azimuth Distance (km) Brightness Sun altitude
Rises 18:03:48 0° 152° (SSE) 2,853 5.8 -16.1°
Reaches altitude 10° 18:06:00 10° 147° (SSE) 1,953 4.9 -16.5°
Maximum altitude 18:10:06 49° 72° (ENE) 785 2.6 -17.2°
Drops below altitude 10° 18:14:14 10° 358° (N) 1,967 5.1 -17.9°
Sets 18:16:27 0° 353° (N) 2,875 6.0 -18.3°
